H1 CPF 2 NER 2025 9 23 9 266 01 glonass135 H2 1600801 9135 41330 2025 9 23 0 0 0 2025 9 26 23 45 0 900 1 1 0 0 0 1 H9 10 0 60941 0.00000 0 -12948867.032 18218431.741 12252997.973 10 0 60941 900.00000 0 -13842505.438 19224512.615 9399950.534 10 0 60941 1800.00000 0 -14406416.339 20034196.405 6363835.591 10 0 60941 2700.00000 0 -14661319.859 20593053.495 3203737.670 10 0 60941 3600.00000 0 -14639322.797 20853957.671 -18794.689 10 0 60941 4500.00000 0 -14382339.213 20779205.652 -3240958.970 10 0 60941 5400.00000 0 -13940104.523 20342256.576 -6399936.598 10 0 60941 6300.00000 0 -13367868.365 19529015.949 -9434133.042 10 0 60941 7200.00000 0 -12723865.517 18338608.063 -12284394.131 10 0 60941 8100.00000 0 -12066673.785 16783602.957 -14895173.216 10 0 60941 9000.00000 0 -11452572.561 14889687.448 -17215624.929 10 0 60941 9900.00000 0 -10933015.548 12694793.769 -19200603.091 10 0 60941 10800.00000 0 -10552325.867 10247722.508 -20811542.648 10 0 60941 11700.00000 0 -10345711.823 7606318.096 -22017208.315 10 0 60941 12600.00000 0 -10337687.465 4835273.860 -22794295.613 10 0 60941 13500.00000 0 -10540964.356 2003659.052 -23127873.390 10 0 60941 14400.00000 0 -10955860.586 -817728.501 -23011660.229 10 0 60941 15300.00000 0 -11570250.902 -3559073.642 -22448130.628 10 0 60941 16200.00000 0 -12360058.807 -6154206.456 -21448450.226 10 0 60941 17100.00000 0 -13290268.661 -8543106.231 -20032242.582 10 0 60941 18000.00000 0 -14316414.042 -10674143.934 -18227193.197 10 0 60941 18900.00000 0 -15386478.845 -12505971.717 -16068499.395 10 0 60941 19800.00000 0 -16443130.553 -14008982.959 -13598177.445 10 0 60941 20700.00000 0 -17426191.499 -15166284.368 -10864240.830 10 0 60941 21600.00000 0 -18275244.249 -15974142.100 -7919765.859 10 0 60941 22500.00000 0 -18932261.919 -16441885.676 -4821862.730 10 0 60941 23400.00000 0 -19344153.376 -16591275.889 -1630571.887 10 0 60941 24300.00000 0 -19465117.015 -16455365.053 1592293.278 10 0 60941 25200.00000 0 -19258704.873 -16076898.751 4784335.428 10 0 60941 26100.00000 0 -18699510.963 -15506327.111 7883771.516 10 0 60941 27000.00000 0 -17774413.321 -14799509.519 10830617.792 10 0 60941 27900.00000 0 -16483317.709 -14015209.161 13567839.495 10 0 60941 28800.00000 0 -14839371.482 -13212482.257 16042443.849 10 0 60941 29700.00000 0 -12868637.881 -12448071.000 18206496.202 10 0 60941 30600.00000 0 -10609243.112 -11773908.938 20018040.601 10 0 60941 31500.00000 0 -8110030.152 -11234842.780 21441907.800 10 0 60941 32400.00000 0 -5428773.411 -10866665.762 22450395.764 10 0 60941 33300.00000 0 -2630026.310 -10694544.821 23023809.891 10 0 60941 34200.00000 0 217310.981 -10731907.821 23150852.544 10 0 60941 35100.00000 0 3042604.761 -10979838.142 22828854.020 10 0 60941 36000.00000 0 5776175.438 -11427003.181 22063839.734 10 0 60941 36900.00000 0 8351949.446 -12050121.216 20870431.183 10 0 60941 37800.00000 0 10709966.341 -12814948.757 19271581.167 10 0 60941 38700.00000 0 12798637.390 -13677748.650 17298146.780 10 0 60941 39600.00000 0 14576661.575 -14587178.735 14988306.767 10 0 60941 40500.00000 0 16014518.811 -15486522.825 12386833.026 10 0 60941 41400.00000 0 17095477.302 -16316170.639 9544229.117 10 0 60941 42300.00000 0 17816072.142 -17016242.161 6515751.705 10 0 60941 43200.00000 0 18186034.446 -17529244.993 3360333.654 10 0 60941 44100.00000 0 18227673.611 -17802651.210 139429.931 10 0 60941 45000.00000 0 17974738.744 -17791283.017 -3084190.357 10 0 60941 45900.00000 0 17470807.781 -17459404.327 -6247681.064 10 0 60941 46800.00000 0 16767273.305 -16782427.649 -9289359.557 10 0 60941 47700.00000 0 15921011.589 -15748162.127 -12149924.787 10 0 60941 48600.00000 0 14991835.096 -14357548.298 -14773627.435 10 0 60941 49500.00000 0 14039837.973 -12624847.274 -17109367.845 10 0 60941 50400.00000 0 13122748.462 -10577275.576 -19111699.163 10 0 60941 51300.00000 0 12293401.530 -8254100.703 -20741715.441 10 0 60941 52200.00000 0 11597439.417 -5705235.467 -21967807.218 10 0 60941 53100.00000 0 11071337.582 -2989390.427 -22766270.138 10 0 60941 54000.00000 0 10740839.108 -171862.205 -23121755.459 10 0 60941 54900.00000 0 10619862.830 2677949.535 -23027554.759 10 0 60941 55800.00000 0 10709929.983 5489192.630 -22485714.503 10 0 60941 56700.00000 0 11000132.043 8192270.182 -21506979.588 10 0 60941 57600.00000 0 11467639.454 10721493.418 -20110568.223 10 0 60941 58500.00000 0 12078728.266 13017570.215 -18323783.685 10 0 60941 59400.00000 0 12790280.032 15029827.208 -16181471.419 10 0 60941 60300.00000 0 13551690.742 16718074.835 -13725332.754 10 0 60941 61200.00000 0 14307107.663 18054039.709 -11003109.038 10 0 60941 62100.00000 0 14997899.550 19022306.880 -8067652.280 10 0 60941 63000.00000 0 15565256.227 19620734.971 -4975900.341 10 0 60941 63900.00000 0 15952808.348 19860328.954 -1787776.450 10 0 60941 64800.00000 0 16109157.580 19764577.838 1434965.956 10 0 60941 65700.00000 0 15990211.284 19368286.494 4629931.160 10 0 60941 66600.00000 0 15561224.082 18715951.696 7735279.408 10 0 60941 67500.00000 0 14798460.858 17859751.056 10690913.004 10 0 60941 68400.00000 0 13690411.519 16857229.350 13439628.169 10 0 60941 69300.00000 0 12238506.294 15768779.020 15928211.222 10 0 60941 70200.00000 0 10457300.935 14655019.897 18108458.876 10 0 60941 71100.00000 0 8374122.918 13574187.219 19938103.865 10 0 60941 72000.00000 0 6028191.808 12579636.536 21381628.787 10 0 60941 72900.00000 0 3469248.501 11717569.272 22410953.138 10 0 60941 73800.00000 0 755748.123 11025073.618 23005980.649 10 0 60941 74700.00000 0 -2047310.624 10528562.582 23154996.370 10 0 60941 75600.00000 0 -4870831.861 10242674.758 22854905.532 10 0 60941 76500.00000 0 -7644245.236 10169684.463 22111308.817 10 0 60941 77400.00000 0 -10298197.821 10299446.925 20938411.460 10 0 60941 78300.00000 0 -12767204.688 10609882.075 19358766.550 10 0 60941 79200.00000 0 -14992148.800 11067978.047 17402855.845 10 0 60941 80100.00000 0 -16922526.303 11631273.540 15108514.587 10 0 60941 81000.00000 0 -18518343.413 12249757.824 12520209.938 10 0 60941 81900.00000 0 -19751584.984 12868109.028 9688185.708 10 0 60941 82800.00000 0 -20607192.426 13428176.486 6667489.196 10 0 60941 83700.00000 0 -21083509.099 13871601.835 3516898.685 10 0 60941 84600.00000 0 -21192173.729 14142467.052 297772.657 10 0 60941 85500.00000 0 -20957465.935 14189855.797 -2927156.072 10 0 60942 0.00000 0 -20415131.572 13970217.715 -6095016.311 10 0 60942 900.00000 0 -19610737.681 13449433.331 -9144040.613 10 0 60942 1800.00000 0 -18597628.327 12604490.299 -12014783.340 10 0 60942 2700.00000 0 -17434568.136 11424697.835 -14651294.902 10 0 60942 3600.00000 0 -16183175.371 9912386.622 -17002223.508 10 0 60942 4500.00000 0 -14905254.378 8083063.439 -19021823.471 10 0 60942 5400.00000 0 -13660141.513 5965013.354 -20670849.439 10 0 60942 6300.00000 0 -12502177.580 3598365.935 -21917318.895 10 0 60942 7200.00000 0 -11478413.902 1033664.798 -22737128.319 10 0 60942 8100.00000 0 -10626648.600 -1669999.279 -23114511.719 10 0 60942 9000.00000 0 -9973875.103 -4447213.268 -23042333.629 10 0 60942 9900.00000 0 -9535206.934 -7228731.610 -22522212.082 10 0 60942 10800.00000 0 -9313322.389 -9944126.936 -21564470.499 10 0 60942 11700.00000 0 -9298450.538 -12524491.643 -20187920.698 10 0 60942 12600.00000 0 -9468897.162 -14905078.512 -18419482.407 10 0 60942 13500.00000 0 -9792086.594 -17027771.571 -16293647.642 10 0 60942 14400.00000 0 -10226073.987 -18843285.784 -13851801.059 10 0 60942 15300.00000 0 -10721463.023 -20313005.714 -11141410.005 10 0 60942 16200.00000 0 -11223647.435 -21410388.498 -8215100.248 10 0 60942 17100.00000 0 -11675281.443 -22121874.665 -5129635.324 10 0 60942 18000.00000 0 -12018874.933 -22447270.764 -1944819.226 10 0 60942 18900.00000 0 -12199404.252 -22399589.655 1277656.628 10 0 60942 19800.00000 0 -12166829.068 -22004356.679 4475400.260 10 0 60942 20700.00000 0 -11878409.791 -21298411.913 7586517.406 10 0 60942 21600.00000 0 -11300728.485 -20328259.417 10550798.700 10 0 60942 22500.00000 0 -10411328.505 -19148032.851 13310873.676 10 0 60942 23400.00000 0 -9199903.943 -17817162.527 15813310.094 10 0 60942 24300.00000 0 -7668988.483 -16397841.052 18009638.336 10 0 60942 25200.00000 0 -5834113.839 -14952392.811 19857281.994 10 0 60942 26100.00000 0 -3723429.704 -13540656.407 21320377.493 10 0 60942 27000.00000 0 -1376799.180 -12217488.542 22370467.594 10 0 60942 27900.00000 0 1155594.884 -11030492.821 22987055.787 10 0 60942 28800.00000 0 3815077.069 -10018067.832 23158010.914 10 0 60942 29700.00000 0 6536666.612 -9207855.797 22879813.911 10 0 60942 30600.00000 0 9251536.197 -8615656.786 22157641.160 10 0 60942 31500.00000 0 11889642.174 -8244854.421 21005281.747 10 0 60942 32400.00000 0 14382418.532 -8086377.918 19444888.822 10 0 60942 33300.00000 0 16665423.666 -8119203.119 17506568.241 10 0 60942 34200.00000 0 18680830.150 -8311372.535 15227810.831 10 0 60942 35100.00000 0 20379653.617 -8621492.499 12652777.700 10 0 60942 36000.00000 0 21723627.028 -9000645.078 9831451.181 10 0 60942 36900.00000 0 22686640.960 -9394634.347 6818667.050 10 0 60942 37800.00000 0 23255688.438 -9746471.873 3673046.432 10 0 60942 38700.00000 0 23431273.582 -9998995.463 455848.378 10 0 60942 39600.00000 0 23227266.073 -10097508.943 -2770233.805 10 0 60942 40500.00000 0 22670207.189 -9992329.344 -5942307.828 10 0 60942 41400.00000 0 21798096.719 -9641131.497 -8998523.719 10 0 60942 42300.00000 0 20658712.591 -9010988.547 -11879295.178 10 0 60942 43200.00000 0 19307535.150 -8080019.898 -14528475.515 10 0 60942 44100.00000 0 17805365.075 -6838575.095 -16894463.729 10 0 60942 45000.00000 0 16215736.968 -5289902.180 -18931217.928 10 0 60942 45900.00000 0 14602239.104 -3450271.372 -20599155.643 10 0 60942 46800.00000 0 13025853.435 -1348548.306 -21865923.213 10 0 60942 47700.00000 0 11542428.585 974765.324 -22707019.465 10 0 60942 48600.00000 0 10200392.252 3468983.362 -23106262.248 10 0 60942 49500.00000 0 9038798.675 6075117.939 -23056089.700 10 0 60942 50400.00000 0 8085792.122 8728114.339 -22557691.626 10 0 60942 51300.00000 0 7357549.253 11359344.527 -21620969.737 10 0 60942 52200.00000 0 6857742.753 13899255.418 -20264328.802 10 0 60942 53100.00000 0 6577546.513 16280061.890 -18514303.947 10 0 60942 54000.00000 0 6496179.835 18438373.109 -16405032.311 10 0 60942 54900.00000 0 6581965.676 20317643.874 -13977580.071 10 0 60942 55800.00000 0 6793856.555 21870350.181 -11279138.419 10 0 60942 56700.00000 0 7083362.469 23059799.993 -8362104.395 10 0 60942 57600.00000 0 7396798.618 23861505.436 -5283064.434 10 0 60942 58500.00000 0 7677757.711 24264060.889 -2101700.278 10 0 60942 59400.00000 0 7869702.511 24269492.005 1120361.849 10 0 60942 60300.00000 0 7918569.549 23893062.532 4320736.966 10 0 60942 61200.00000 0 7775274.638 23162548.147 7437479.526 10 0 60942 62100.00000 0 7398015.108 22117008.485 10410271.624 10 0 60942 63000.00000 0 6754272.195 20805109.016 13181579.058 10 0 60942 63900.00000 0 5822429.483 19283062.921 15697753.744 10 0 60942 64800.00000 0 4592939.195 17612278.478 17910062.178 10 0 60942 65700.00000 0 3068986.677 15856809.505 19775620.961 10 0 60942 66600.00000 0 1266624.078 14080714.299 21258222.175 10 0 60942 67500.00000 0 -785634.072 12345432.226 22329033.328 10 0 60942 68400.00000 0 -3047738.628 10707286.343 22967158.772 10 0 60942 69300.00000 0 -5469520.692 9215215.340 23160051.832 10 0 60942 70200.00000 0 -7992537.195 7908828.791 22903769.376 10 0 60942 71100.00000 0 -10552272.992 6816866.571 22203063.220 10 0 60942 72000.00000 0 -13080610.125 5956126.854 21071305.512 10 0 60942 72900.00000 0 -15508463.448 5330907.917 19530248.143 10 0 60942 73800.00000 0 -17768474.280 4932987.784 17609619.242 10 0 60942 74700.00000 0 -19797650.569 4742143.373 15346562.919 10 0 60942 75600.00000 0 -21539843.536 4727188.156 12784931.552 10 0 60942 76500.00000 0 -22947956.828 4847485.264 9974443.031 10 0 60942 77400.00000 0 -23985794.777 5054872.615 6969718.454 10 0 60942 78300.00000 0 -24629471.029 5295918.568 3829218.558 10 0 60942 79200.00000 0 -24868317.076 5514412.111 614099.740 10 0 60942 80100.00000 0 -24705251.298 5653980.956 -2612987.366 10 0 60942 81000.00000 0 -24156592.097 5660724.987 -5789132.145 10 0 60942 81900.00000 0 -23251322.579 5485751.453 -8852405.580 10 0 60942 82800.00000 0 -22029837.905 5087502.319 -11743083.163 10 0 60942 83700.00000 0 -20542228.763 4433773.016 -14404823.623 10 0 60942 84600.00000 0 -18846174.362 3503335.189 -16785778.984 10 0 60942 85500.00000 0 -17004535.077 2287093.221 -18839613.031 10 0 60943 0.00000 0 -15082747.673 788724.616 -20526407.494 10 0 60943 900.00000 0 -13146132.874 -975224.317 -21813438.846 10 0 60943 1800.00000 0 -11257231.927 -2975789.795 -22675808.560 10 0 60943 2700.00000 0 -9473280.948 -5172572.566 -23096918.273 10 0 60943 3600.00000 0 -7843931.328 -7515207.251 -23068779.204 10 0 60943 4500.00000 0 -6409309.885 -9945257.908 -22592151.972 10 0 60943 5400.00000 0 -5198498.777 -12398460.138 -21676515.248 10 0 60943 6300.00000 0 -4228496.826 -14807215.990 -20339865.115 10 0 60943 7200.00000 0 -3503703.525 -17103237.633 -18608350.224 10 0 60943 8100.00000 0 -3015944.807 -19220229.966 -16515750.799 10 0 60943 9000.00000 0 -2745037.006 -21096501.038 -14102812.398 10 0 60943 9900.00000 0 -2659863.048 -22677392.439 -11416447.889 10 0 60943 10800.00000 0 -2719913.656 -23917429.555 -8508823.428 10 0 60943 11700.00000 0 -2877227.199 -24782103.412 -5436346.254 10 0 60943 12600.00000 0 -3078645.503 -25249211.191 -2258573.839 10 0 60943 13500.00000 0 -3268289.968 -25309700.910 962934.744 10 0 60943 14400.00000 0 -3390153.562 -24967986.265 4165803.410 10 0 60943 15300.00000 0 -3390699.560 -24241719.548 7288037.214 10 0 60943 16200.00000 0 -3221357.905 -23161032.865 10269211.583 10 0 60943 17100.00000 0 -2840814.469 -21767279.687 13051630.448 10 0 60943 18000.00000 0 -2216997.105 -20111329.285 15581431.743 10 0 60943 18900.00000 0 -1328675.049 -18251484.767 17809619.867 10 0 60943 19800.00000 0 -166604.106 -16251110.803 19693006.128 10 0 60943 20700.00000 0 1265831.237 -14176068.900 21195039.798 10 0 60943 21600.00000 0 2952507.046 -12092065.879 22286514.458 10 0 60943 22500.00000 0 4864986.969 -10062024.743 22946136.412 10 0 60943 23400.00000 0 6963471.517 -8143586.271 23160944.289 10 0 60943 24300.00000 0 9198232.463 -6386844.435 22926571.443 10 0 60943 25200.00000 0 11511475.198 -4832409.320 22247345.410 10 0 60943 26100.00000 0 13839553.875 -3509877.997 21136221.419 10 0 60943 27000.00000 0 16115449.209 -2436777.242 19614549.867 10 0 60943 27900.00000 0 18271407.338 -1618022.586 17711680.647 10 0 60943 28800.00000 0 20241630.648 -1045916.956 15464410.367 10 0 60943 29700.00000 0 21964908.611 -700689.548 12916281.580 10 0 60943 30600.00000 0 23387078.325 -551552.870 10116746.290 10 0 60943 31500.00000 0 24463210.812 -558233.747 7120209.113 10 0 60943 32400.00000 0 25159430.137 -672913.658 3984968.223 10 0 60943 33300.00000 0 25454287.401 -842495.905 772074.825 10 0 60943 34200.00000 0 25339630.330 -1011102.671 -2455865.937 10 0 60943 35100.00000 0 24820930.551 -1122694.739 -5635928.160 10 0 60943 36000.00000 0 23917053.863 -1123700.987 -8706106.909 10 0 60943 36900.00000 0 22659482.753 -965544.132 -11606542.577 10 0 60943 37800.00000 0 21091024.087 -606953.536 -14280702.314 10 0 60943 38700.00000 0 19264056.988 -15965.103 -16676493.964 10 0 60943 39600.00000 0 17238395.711 828478.094 -18747289.548 10 0 60943 40500.00000 0 15078858.596 1935393.469 -20452837.555 10 0 60943 41400.00000 0 12852646.432 3301143.533 -21760045.975 10 0 60943 42300.00000 0 10626641.274 4909363.863 -22643620.956 10 0 60943 43200.00000 0 8464739.544 6731437.499 -23086549.283 10 0 60943 44100.00000 0 6425331.145 8727495.654 -23080416.240 10 0 60943 45000.00000 0 4559029.522 10847902.335 -22625553.847 10 0 60943 45900.00000 0 2906746.413 13035160.303 -21731017.892 10 0 60943 46800.00000 0 1498189.983 15226158.311 -20414395.492 10 0 60943 47700.00000 0 350846.955 17354665.504 -18701448.078 10 0 60943 48600.00000 0 -530511.265 19353968.919 -16625597.790 10 0 60943 49500.00000 0 -1153780.434 21159544.355 -14227267.971 10 0 60943 50400.00000 0 -1538937.932 22711649.726 -11553091.171 10 0 60943 51300.00000 0 -1716946.752 23957733.573 -8655000.318 10 0 60943 52200.00000 0 -1728197.076 24854559.237 -5589220.788 10 0 60943 53100.00000 0 -1620552.478 25369957.165 -2415182.854 10 0 60943 54000.00000 0 -1447084.010 25484133.340 805624.671 10 0 60943 54900.00000 0 -1263588.138 25190480.287 4010837.829 10 0 60943 55800.00000 0 -1125993.198 24495857.665 7138415.532 10 0 60943 56700.00000 0 -1087763.445 23420331.376 10127829.744 10 0 60943 57600.00000 0 -1197409.656 21996382.379 12921225.615 10 0 60943 58500.00000 0 -1496210.707 20267618.137 15464529.993 10 0 60943 59400.00000 0 -2016241.694 18287039.982 17708487.864 10 0 60943 60300.00000 0 -2778791.540 16114937.768 19609607.648 10 0 60943 61200.00000 0 -3793236.922 13816498.361 21130997.928 10 0 60943 62100.00000 0 -5056420.703 11459226.191 22243080.141 10 0 60943 63000.00000 0 -6552562.343 9110281.685 22924163.955 10 0 60943 63900.00000 0 -8253705.920 6833846.931 23160874.292 10 0 60943 64800.00000 0 -10120689.350 4688626.848 22948421.513 10 0 60943 65700.00000 0 -12104596.795 2725588.822 22290708.881 10 0 60943 66600.00000 0 -14148636.121 986034.307 21200274.156 10 0 60943 67500.00000 0 -16190365.332 -499917.590 19698065.121 10 0 60943 68400.00000 0 -18164176.944 -1714371.159 17813051.761 10 0 60943 69300.00000 0 -20003937.809 -2652175.944 15581680.977 10 0 60943 70200.00000 0 -21645674.694 -3320907.068 13047182.827 10 0 60943 71100.00000 0 -23030193.155 -3740304.352 10258740.396 10 0 60943 72000.00000 0 -24105519.225 -3941193.465 7270538.514 10 0 60943 72900.00000 0 -24829060.207 -3963934.509 4140709.322 10 0 60943 73800.00000 0 -25169392.169 -3856463.871 930195.309 10 0 60943 74700.00000 0 -25107597.203 -3672012.946 -2298447.390 10 0 60943 75600.00000 0 -24638092.465 -3466601.566 -5482281.006 10 0 60943 76500.00000 0 -23768914.703 -3296414.010 -8559227.982 10 0 60943 77400.00000 0 -22521447.348 -3215170.763 -11469296.726 10 0 60943 78300.00000 0 -20929601.257 -3271609.498 -14155765.680 10 0 60943 79200.00000 0 -19038483.749 -3507184.023 -16566301.079 10 0 60943 80100.00000 0 -16902612.519 -3954080.399 -18653985.348 10 0 60943 81000.00000 0 -14583750.454 -4633635.582 -20378235.283 10 0 60943 81900.00000 0 -12148453.269 -5555226.374 -21705591.823 10 0 60943 82800.00000 0 -9665433.803 -6715676.079 -22610366.120 10 0 60943 83700.00000 0 -7202854.044 -8099203.948 -23075129.979 10 0 60943 84600.00000 0 -4825658.408 -9677919.306 -23091042.024 10 0 60943 85500.00000 0 -2593059.448 -11412839.101 -22658004.408 10 0 60944 0.00000 0 -556280.271 -13255385.451 -21784648.412 10 0 60944 900.00000 0 1243354.662 -15149300.887 -20488149.941 10 0 60944 1800.00000 0 2775899.955 -17032898.165 -18793880.932 10 0 60944 2700.00000 0 4023785.148 -18841553.599 -16734902.911 10 0 60944 3600.00000 0 4982284.324 -20510337.251 -14351314.391 10 0 60944 4500.00000 0 5659443.638 -21976671.266 -11689464.950 10 0 60944 5400.00000 0 6075472.242 -23182905.632 -8801051.662 10 0 60944 6300.00000 0 6261624.467 -24078704.460 -5742115.481 10 0 60944 7200.00000 0 6258622.146 -24623143.897 -2571957.031 10 0 60944 8100.00000 0 6114684.801 -24786434.923 648007.471 10 0 60944 9000.00000 0 5883251.514 -24551199.900 3855428.380 10 0 60944 9900.00000 0 5620490.798 -23913250.266 6988220.517 10 0 60944 10800.00000 0 5382703.352 -22881833.396 9985754.288 10 0 60944 11700.00000 0 5223726.773 -21479338.531 12790017.812 10 0 60944 12600.00000 0 5192451.037 -19740473.906 15346728.435 10 0 60944 13500.00000 0 5330548.848 -17710948.849 17606373.135 10 0 60944 14400.00000 0 5670515.992 -15445714.844 19525158.643 10 0 60944 15300.00000 0 6234104.063 -13006837.573 21065853.802 10 0 60944 16200.00000 0 7031211.773 -10461086.939 22198508.614 10 0 60944 17100.00000 0 8059282.292 -7877343.621 22901036.549 10 0 60944 18000.00000 0 9303233.303 -5323928.308 23159648.999 10 0 60944 18900.00000 0 10735924.580 -2865963.027 22969133.261 10 0 60944 19800.00000 0 12319145.749 -562872.896 22332968.019 10 0 60944 20700.00000 0 14005085.281 1533868.719 21263273.070 10 0 60944 21600.00000 0 15738221.565 3382658.450 19780592.898 10 0 60944 22500.00000 0 17457559.036 4953264.799 17913516.720 10 0 60944 23400.00000 0 19099117.316 6227850.812 15698140.706 10 0 60944 24300.00000 0 20598570.074 7201474.427 13177381.205 10 0 60944 25200.00000 0 21893923.252 7882045.060 10400150.959 10 0 60944 26100.00000 0 22928119.777 8289737.832 7420413.348 10 0 60944 27000.00000 0 23651460.248 8455889.925 4296132.577 10 0 60944 27900.00000 0 24023736.222 8421425.712 1088140.269 10 0 60944 28800.00000 0 24015984.411 8234877.823 -2141058.813 10 0 60944 29700.00000 0 23611785.985 7950088.821 -5328517.547 10 0 60944 30600.00000 0 22808054.478 7623692.337 -8412088.354 10 0 60944 31500.00000 0 21615277.654 7312482.112 -11331650.246 10 0 60944 32400.00000 0 20057202.245 7070782.412 -14030295.463 10 0 60944 33300.00000 0 18169974.425 6947933.217 -16455450.999 10 0 60944 34200.00000 0 16000772.307 6985998.443 -18559911.876 10 0 60944 35100.00000 0 13605988.477 7217795.661 -20302765.200 10 0 60944 36000.00000 0 11049039.597 7665331.629 -21650186.659 10 0 60944 36900.00000 0 8397895.785 8338710.256 -22576094.016 10 0 60944 37800.00000 0 5722433.856 9235559.134 -23062645.464 10 0 60944 38700.00000 0 3091725.492 10340998.469 -23100574.061 10 0 60944 39600.00000 0 571373.530 11628153.115 -22689352.858 10 0 60944 40500.00000 0 -1778993.078 13059185.404 -21837188.820 10 0 60944 41400.00000 0 -3907962.384 14586804.614 -20560846.905 10 0 60944 42300.00000 0 -5774228.772 16156189.026 -18885308.937 10 0 60944 43200.00000 0 -7348051.903 17707239.464 -16843274.881 10 0 60944 44100.00000 0 -8612226.915 19177069.612 -14474517.036 10 0 60944 45000.00000 0 -9562528.008 20502628.768 -11825100.250 10 0 60944 45900.00000 0 -10207609.562 21623347.432 -8946483.636 10 0 60944 46800.00000 0 -10568371.455 22483695.446 -5894521.350 10 0 60944 47700.00000 0 -10676817.356 23035546.193 -2728381.750 10 0 60944 48600.00000 0 -10574455.718 23240248.606 490594.322 10 0 60944 49500.00000 0 -10310311.910 23070320.979 3700074.444 10 0 60944 50400.00000 0 -9938635.815 22510696.328 6837932.327 10 0 60944 51300.00000 0 -9516401.649 21559467.616 9843439.822 10 0 60944 52200.00000 0 -9100705.040 20228101.865 12658430.991 10 0 60944 53100.00000 0 -8746166.488 18541113.960 15228416.583 10 0 60944 54000.00000 0 -8502449.882 16535213.211 17503628.326 10 0 60944 54900.00000 0 -8411999.849 14257957.206 19439973.853 10 0 60944 55800.00000 0 -8508092.673 11765967.690 20999884.633 10 0 60944 56700.00000 0 -8813282.580 9122781.052 22153041.305 10 0 60944 57600.00000 0 -9338308.985 6396420.892 22876962.878 10 0 60944 58500.00000 0 -10081511.404 3656791.681 23157448.563 10 0 60944 59400.00000 0 -11028777.923 972999.884 22988863.475 10 0 60944 60300.00000 0 -12154031.161 -1589287.779 22374262.113 10 0 60944 61200.00000 0 -13420233.412 -3970340.454 21325346.142 10 0 60944 62100.00000 0 -14780871.008 -6118610.733 19862256.017 10 0 60944 63000.00000 0 -16181857.763 -7992640.603 18013198.894 10 0 60944 63900.00000 0 -17563779.363 -9562546.307 15813918.362 10 0 60944 64800.00000 0 -18864385.756 -10811019.865 13307014.728 10 0 60944 65700.00000 0 -20021227.428 -11733804.855 10541127.632 10 0 60944 66600.00000 0 -20974324.601 -12339626.018 7569995.917 10 0 60944 67500.00000 0 -21668756.190 -12649575.283 4451412.514 10 0 60944 68400.00000 0 -22057058.097 -12695979.994 1246094.693 10 0 60944 69300.00000 0 -22101327.895 -12520801.394 -1983507.710 10 0 60944 70200.00000 0 -21774945.127 -12173631.812 -5174441.797 10 0 60944 71100.00000 0 -21063832.613 -11709376.477 -8264493.483 10 0 60944 72000.00000 0 -19967203.807 -11185719.697 -11193415.802 10 0 60944 72900.00000 0 -18497763.277 -10660484.512 -13904118.035 10 0 60944 73800.00000 0 -16681350.971 -10188999.552 -16343790.911 10 0 60944 74700.00000 0 -14556044.888 -9821586.345 -18464944.669 10 0 60944 75600.00000 0 -12170759.976 -9601274.905 -20226338.879 10 0 60944 76500.00000 0 -9583402.484 -9561845.229 -21593785.567 10 0 60944 77400.00000 0 -6858657.833 -9726278.023 -22540810.048 10 0 60944 78300.00000 0 -4065505.163 -10105680.091 -23049157.172 10 0 60944 79200.00000 0 -1274562.916 -10698729.292 -23109134.030 10 0 60944 80100.00000 0 1444623.624 -11491661.652 -22719783.558 10 0 60944 81000.00000 0 4026240.054 -12458800.188 -21888886.957 10 0 60944 81900.00000 0 6410695.941 -13563602.120 -20632796.104 10 0 60944 82800.00000 0 8546850.746 -14760179.384 -18976100.440 10 0 60944 83700.00000 0 10393881.700 -15995227.739 -16951135.784 10 0 60944 84600.00000 0 11922717.992 -17210282.789 -14597345.435 10 0 60944 85500.00000 0 13116983.936 -18344207.902 -11960506.573 99